SL-14 R/B, 23793

Orbit data source: Space-Track

SL-14 R/B, 23793 is space debris in LEO originally from a launch on Mon, 19 Feb 1996 UTC launched from the Plesetsk Missile And Space Complex (PKMTR). Debris objects in space refer to the collection of defunct objects orbiting the Earth. Examples of debris include non-operational satellites, rocket bodies, and fragments generated from explosions, collisions, or faulty payload assembly.

Loading next visibility...
SL-14 R/B details
Identifier
23793, 1996-009G
Orbit
LEO
Last TLE update14 hours ago
Origin
Flag of CISVKS (CIS)
ManufacturerYuzhnoe
MissionSpacecraft
Bus & MotorS5M, Unknown motor
Mass1,600 kg wet, 1,600 kg dry
Launch date (UTC)
1996-02-19 (29 years ago)
Launch vehicleUnknown
Launch site
Plesetsk Missile And Space Complex (PKMTR)
Object type
Payload
Rocket body
Debris
Shape & HBRCyl, 2.7 m
Radar Cross Section7.351 m², Large (>1 m²)

Expand to show TLE details & history

TLE from 14 hours ago
0 SL-14 R/B
1 23793U 96009G   24361.18594865  .00000030  00000-0  11819-3 0  9996
2 23793  82.5701  27.7254 0046111  92.2192 333.1288 12.55085636321863
Epoch: 2024-12-26T04:27Z
Definitive object data (Epoch: 2024-12-26T04:27:45.963Z)
Latitude64.17298°
Longitude-118.83343°
Altitude1,422.175 km
Speed7.17 km/s
True Right ascension02h 53m 06s
True Declination64° 02' 58"
Sunlit
Object was in full shadow at TLE epoch
Visualization TLE readout
Latitude-0.52133°
Longitude45.31496°
Altitude1,445.601 km
Speed7.139 km/s
Apparent Right ascension11h 16m 36s
Apparent Declination-31° 07' 17"
Sunlit
Object is in daylight
Visualization observer readout
Local Sidereal Time17:50:19
Azimuth249.542° W
Elevation-25.332°
Doppler factor1
Orbital elements
Apogee altitude1,476.679 km
Perigee altitude1,404.573 km
Semi-major axis7,818.763 km
Eccentricity0.0046111
Inclination82.5701°
RAAN27.7254°
Arg. of periapsis92.2192°
True anomaly332.88874°
Mean anomaly333.1288°
Eccentric anomaly333.00889°
Mean motion3.13932 °/min
BSTAR0.00011819
Orbital period114.67 mins
Loading maneuver chart data...
Loading historical data...
Loading historical data...
Loading historical data...
Loading historical data...
Loading historical data...
Loading historical data...
Loading historical data...

SL-14 R/B Visibility forecast

Observer location: undefined°, undefined

Span
Click to sort rows by Start time (UTC) header in descending order
Start Az.
Max El. time (UTC)
Max El. Az.
Max El.
End time (UTC)
End Az.
12 mins2024-12-27 01:16:49.058Z130.66° SE2024-12-27 01:22:49.058Z80.626° E23.591°2024-12-27 01:28:49.058Z32.296° NE
15 mins2024-12-27 03:10:49.058Z203.144° SW2024-12-27 03:17:49.058Z286.531° WNW41.578°2024-12-27 03:25:49.058Z1.446° NNE
14 mins2024-12-27 13:15:49.058Z3.54° NNE2024-12-27 13:22:49.058Z88.642° E39.975°2024-12-27 13:29:49.058Z154.328° SSE
11 mins2024-12-27 15:12:49.058Z320.97° NNW2024-12-27 15:17:49.058Z273.51° WNW25.481°2024-12-27 15:23:49.058Z224.306° SW
|